| time (UTC) | temp F | wind direction | speed knots | gust knots | rain 1hr in | rain 24hr in | rain mn in | humidity % | barometer mb |
| 20260906050501 | 51 | 346 | 13.9 | 18.2 | 0.00 | 0.00 | 0.00 | 79 | 1006.9 |
| 20260906044132 | 51 | 348 | 13.9 | 18.2 | 0.00 | 0.00 | 0.00 | 82 | 1006.6 |
| 20260906042131 | 50 | 353 | 17.4 | 22.6 | 0.00 | 0.00 | 0.00 | 83 | 1006.3 |
| 20260906040500 | 49 | 353 | 17.4 | 25.2 | 0.00 | 0.00 | 0.00 | 85 | 1005.9 |
| 20260906034131 | 50 | 345 | 18.2 | 23.5 | 0.00 | 0.00 | 0.00 | 85 | 1005.6 |
| 20260906032459 | 50 | 340 | 19.1 | 26.9 | 0.00 | 0.00 | 0.00 | 85 | 1005.4 |
| 20260906022501 | 51 | 345 | 17.4 | 22.6 | 0.00 | 0.00 | 0.00 | 83 | 1004.7 |
| 20260906020130 | 51 | 350 | 16.5 | 20.0 | 0.00 | 0.00 | 0.00 | 83 | 1004.5 |
| 20260906012131 | 51 | 346 | 20.0 | 25.2 | 0.00 | 0.00 | 0.00 | 81 | 1004.0 |
| 20260906010501 | 52 | 344 | 18.2 | 24.3 | 0.00 | 0.00 | 0.00 | 80 | 1003.8 |
| 20260906004502 | 52 | 345 | 19.1 | 25.2 | 0.00 | 0.00 | 0.00 | 79 | 1003.5 |
| 20260906002130 | 52 | 341 | 20.9 | 26.1 | 0.00 | 0.00 | 0.00 | 78 | 1003.2 |
| 20260906000457 | 53 | 339 | 17.4 | 22.6 | 0.00 | 0.00 | 0.00 | 80 | 1003.0 |
| 20260905234500 | 54 | 350 | 15.6 | 21.7 | 0.00 | 0.00 | 0.00 | 80 | 1002.7 |
| 20260905232459 | 55 | 344 | 13.9 | 19.1 | 0.00 | 0.00 | 0.00 | 82 | 1002.3 |
| 20260905230500 | 56 | 352 | 13.0 | 17.4 | 0.00 | 0.00 | 0.00 | 78 | 1002.1 |
| 20260905224131 | 56 | 3 | 14.8 | 19.1 | 0.00 | 0.00 | 0.00 | 75 | 1001.8 |
| 20260905222500 | 57 | 8 | 14.8 | 19.1 | 0.00 | 0.00 | 0.00 | 77 | 1001.6 |
| 20260905220500 | 57 | 351 | 13.0 | 18.2 | 0.00 | 0.00 | 0.00 | 79 | 1001.4 |
| 20260905214500 | 58 | 343 | 14.8 | 18.2 | 0.00 | 0.00 | 0.00 | 80 | 1001.2 |
| 20260905212130 | 59 | 334 | 13.0 | 16.5 | 0.00 | 0.00 | 0.00 | 80 | 1001.0 |
| 20260905210456 | 59 | 326 | 13.0 | 16.5 | 0.00 | 0.00 | 0.00 | 79 | 1000.9 |
| 20260905202459 | 59 | 319 | 11.3 | 13.0 | 0.00 | 0.00 | 0.00 | 77 | 1000.5 |
| 20260905200500 | 60 | 318 | 10.4 | 13.9 | 0.00 | 0.00 | 0.00 | 76 | 1000.3 |
| 20260905194129 | 60 | 312 | 10.4 | 13.9 | 0.00 | 0.00 | 0.00 | 77 | 1000.1 |
| 20260905192130 | 60 | 308 | 10.4 | 12.2 | 0.00 | 0.00 | 0.00 | 77 | 1000.1 |
| 20260905190130 | 60 | 308 | 10.4 | 13.0 | 0.00 | 0.00 | 0.00 | 76 | 1000.0 |
| 20260905184459 | 60 | 309 | 11.3 | 13.9 | 0.00 | 0.00 | 0.00 | 74 | 999.9 |
| 20260905182458 | 60 | 312 | 10.4 | 13.9 | 0.00 | 0.00 | 0.00 | 74 | 999.8 |
| 20260905180455 | 60 | 308 | 13.0 | 15.6 | 0.00 | 0.00 | 0.00 | 72 | 999.5 |
| 20260905174455 | 60 | 307 | 13.0 | 15.6 | 0.00 | 0.00 | 0.00 | 71 | 999.4 |
| 20260905172457 | 61 | 310 | 13.9 | 17.4 | 0.00 | 0.00 | 0.00 | 71 | 999.2 |
| 20260905170458 | 62 | 309 | 13.9 | 18.2 | 0.00 | 0.00 | 0.00 | 64 | 998.5 |
| 20260905164459 | 61 | 308 | 14.8 | 17.4 | 0.00 | 0.00 | 0.00 | 68 | 998.8 |
| 20260905162130 | 62 | 309 | 13.9 | 18.2 | 0.00 | 0.00 | 0.00 | 64 | 998.5 |
| 20260905160457 | 62 | 309 | 15.6 | 20.0 | 0.00 | 0.00 | 0.00 | 65 | 998.3 |
| 20260905154130 | 62 | 304 | 16.5 | 20.9 | 0.00 | 0.00 | 0.00 | 62 | 998.0 |
| 20260905152130 | 63 | 302 | 14.8 | 19.1 | 0.00 | 0.00 | 0.00 | 60 | 998.0 |
| 20260905150457 | 64 | 292 | 14.8 | 20.0 | 0.00 | 0.00 | 0.00 | 60 | 997.7 |
| 20260905142458 | 63 | 288 | 14.8 | 18.2 | 0.00 | 0.00 | 0.00 | 63 | 997.5 |
| 20260905140457 | 63 | 290 | 13.9 | 16.5 | 0.00 | 0.00 | 0.00 | 61 | 997.4 |
| 20260905134456 | 63 | 287 | 12.2 | 15.6 | 0.00 | 0.00 | 0.00 | 61 | 997.3 |
| 20260905132129 | 62 | 263 | 12.2 | 14.8 | 0.00 | 0.00 | 0.00 | 67 | 997.2 |
| 20260905130501 | 64 | 261 | 8.7 | 9.6 | 0.00 | 0.00 | 0.00 | 65 | 997.1 |
| 20260905124457 | 62 | 260 | 9.6 | 11.3 | 0.00 | 0.00 | 0.00 | 69 | 997.0 |
| 20260905122455 | 62 | 261 | 8.7 | 10.4 | 0.00 | 0.00 | 0.00 | 66 | 996.9 |
| 20260905120457 | 61 | 267 | 7.8 | 9.6 | 0.00 | 0.00 | 0.00 | 64 | 996.8 |
| 20260905114127 | 61 | 259 | 8.7 | 10.4 | 0.00 | 0.00 | 0.00 | 65 | 996.8 |
| 20260905112458 | 61 | 262 | 7.0 | 8.7 | 0.00 | 0.00 | 0.00 | 63 | 996.7 |
| 20260905110456 | 61 | 257 | 6.1 | 7.8 | 0.00 | 0.00 | 0.00 | 67 | 996.5 |
| 20260905104458 | 60 | 273 | 7.0 | 8.7 | 0.00 | 0.00 | 0.00 | 65 | 996.4 |
| 20260905102458 | 61 | 277 | 5.2 | 8.7 | 0.00 | 0.00 | 0.00 | 68 | 996.0 |
| 20260905100457 | 61 | 287 | 6.1 | 7.8 | 0.00 | 0.00 | 0.00 | 67 | 996.0 |
| 20260905094456 | 60 | 293 | 6.1 | 7.8 | 0.00 | 0.00 | 0.00 | 67 | 995.8 |
| 20260905092457 | 60 | 313 | 5.2 | 7.8 | 0.00 | 0.00 | 0.00 | 70 | 995.7 |
| 20260905090457 | 59 | 328 | 7.0 | 9.6 | 0.00 | 0.00 | 0.00 | 72 | 995.6 |
| 20260905084458 | 58 | 334 | 7.8 | 11.3 | 0.00 | 0.00 | 0.00 | 70 | 995.5 |
| 20260905080126 | 57 | 333 | 7.8 | 9.6 | 0.00 | 0.00 | 0.00 | 78 | 995.0 |
| 20260905074454 | 57 | 333 | 7.0 | 9.6 | 0.00 | 0.00 | 0.00 | 79 | 995.0 |
| 20260905072455 | 57 | 336 | 6.1 | 8.7 | 0.00 | 0.00 | 0.00 | 81 | 994.9 |
| 20260905064127 | 56 | 335 | 5.2 | 7.8 | 0.00 | 0.00 | 0.00 | 81 | 994.7 |
| 20260905062126 | 56 | 341 | 4.3 | 6.1 | 0.00 | 0.00 | 0.00 | 80 | 994.5 |
| 20260905060456 | 55 | 2 | 4.3 | 6.1 | 0.00 | 0.00 | 0.00 | 81 | 994.5 |
| 20260905054127 | 55 | 347 | 2.6 | 3.5 | 0.00 | 0.00 | 0.00 | 83 | 994.4 |
| 20260905052454 | 55 | 16 | 3.5 | 5.2 | 0.00 | 0.00 | 0.00 | 81 | 994.4 |